TimeEST,TemperatureF,Dew PointF,Humidity,Sea Level PressureIn,VisibilityMPH,Wind Direction,Wind SpeedMPH,Gust SpeedMPH,PrecipitationIn,Events,Conditions,WindDirDegrees,DateUTC
12:53 AM,32.0,26.1,79,30.20,8.0,Calm,Calm,-,N/A,,Overcast,0,2013-01-06 05:53:00
1:53 AM,33.1,26.1,75,30.18,8.0,Calm,Calm,-,N/A,,Overcast,0,2013-01-06 06:53:00
2:53 AM,30.0,25.0,82,30.18,6.0,Calm,Calm,-,N/A,,Haze,0,2013-01-06 07:53:00
3:53 AM,30.9,25.0,79,30.17,7.0,Calm,Calm,-,N/A,,Overcast,0,2013-01-06 08:53:00
4:53 AM,30.0,24.1,79,30.16,7.0,Calm,Calm,-,N/A,,Scattered Clouds,0,2013-01-06 09:53:00
5:53 AM,32.0,24.1,73,30.14,8.0,Calm,Calm,-,N/A,,Overcast,0,2013-01-06 10:53:00
6:53 AM,35.1,23.0,61,30.15,10.0,SSE,3.5,-,N/A,,Overcast,160,2013-01-06 11:53:00
7:53 AM,34.0,24.1,67,30.16,9.0,SSE,3.5,-,N/A,,Overcast,160,2013-01-06 12:53:00
8:53 AM,35.1,25.0,67,30.15,10.0,SSE,4.6,-,N/A,,Overcast,160,2013-01-06 13:53:00
9:53 AM,39.0,25.0,57,30.15,10.0,SSW,4.6,-,N/A,,Mostly Cloudy,200,2013-01-06 14:53:00
10:53 AM,42.1,26.1,53,30.14,10.0,SW,8.1,-,N/A,,Partly Cloudy,230,2013-01-06 15:53:00
11:53 AM,42.1,25.0,51,30.11,10.0,SSW,8.1,-,N/A,,Overcast,210,2013-01-06 16:53:00
12:53 PM,44.1,25.0,47,30.06,10.0,WSW,6.9,-,N/A,,Overcast,240,2013-01-06 17:53:00
1:53 PM,44.1,26.1,49,30.05,10.0,WSW,8.1,-,N/A,,Overcast,250,2013-01-06 18:53:00
2:53 PM,44.1,27.0,51,30.05,10.0,SW,4.6,-,N/A,,Overcast,230,2013-01-06 19:53:00
3:53 PM,44.1,26.1,49,30.05,10.0,SW,5.8,-,N/A,,Overcast,220,2013-01-06 20:53:00
4:53 PM,43.0,27.0,53,30.06,10.0,SW,4.6,-,N/A,,Overcast,230,2013-01-06 21:53:00
5:53 PM,43.0,26.1,51,30.09,10.0,WSW,4.6,-,N/A,,Overcast,240,2013-01-06 22:53:00
6:53 PM,42.1,27.0,55,30.10,10.0,SW,3.5,-,N/A,,Overcast,220,2013-01-06 23:53:00
7:53 PM,42.1,27.0,55,30.11,10.0,West,3.5,-,N/A,,Overcast,260,2013-01-07 00:53:00
8:53 PM,41.0,28.0,60,30.12,10.0,West,5.8,-,N/A,,Overcast,260,2013-01-07 01:53:00
9:53 PM,39.9,28.0,63,30.13,10.0,WSW,4.6,-,N/A,,Overcast,240,2013-01-07 02:53:00
10:53 PM,39.9,28.9,65,30.15,10.0,Calm,Calm,-,N/A,,Overcast,0,2013-01-07 03:53:00
11:53 PM,39.9,28.9,65,30.18,10.0,WNW,3.5,-,N/A,,Overcast,290,2013-01-07 04:53:00